Weather History for Oshkosh, WI

Change the Weather History Date:

Friday, November 29, 2013

  Actual Average Record
Temperature  
Mean Temperature 20 °F -  
Max Temperature 30 °F 35 °F 64 °F (1998)
Min Temperature 9 °F 19 °F -8 °F (1976)
Degree Days  
Heating Degree Days 46    
Moisture  
Dew Point 14 °F    
Average Humidity 72    
Maximum Humidity 88    
Minimum Humidity 54    
Precipitation  
Precipitation 0.00 in - - ()
Sea Level Pressure  
Sea Level Pressure 30.56 in    
Wind  
Wind Speed 5 mph (SSW)    
Max Wind Speed 10 mph    
Max Gust Speed -    
Visibility 10 miles    
Events      
Averages and records for this station are not official NWS values.
T = Trace of Precipitation, MM = Missing Value Source: NWS Daily Summary

Daily Weather History Graph

Daily Weather History Graph

Search for Another Location

Airport:

Trip Planner

Search our weather history database for the weather conditions in past years. The results will help you decide how hot, cold, wet, or windy it might be!

Date:

Astronomy

Nov. 29, 2013 Rise Set
Actual Time 7:06 AM CST 4:18 PM CST
Civil Twilight 6:34 AM CST 4:50 PM CST
Nautical Twilight 5:58 AM CST 5:26 PM CST
Astronomical Twilight 5:24 AM CST 6:00 PM CST
Moon 3:05 AM CST (11/29) 2:08 PM CST (11/29)
Length of Visible Light 10h 15m
Length of Day
9h 11m
Waning Crescent, 14% of the Moon is Illuminated
Nov 29
Waning Crescent
Dec 2
New
Dec 9
First Quarter
Dec 17
Full
Dec 25
Last Quarter

Hourly Weather History & Observations

Time (CST) Temp. Windchill Dew Point Humidity Pressure Visibility Wind Dir Wind Speed Gust Speed Precip Events Conditions
12:53 AM 15.1 °F 7.7 °F 10.0 °F 80% 30.56 in 10.0 mi West 4.6 mph - N/A   Clear
1:53 AM 15.1 °F 6.4 °F 10.0 °F 80% 30.57 in 10.0 mi West 5.8 mph - N/A   Clear
2:53 AM 14.0 °F 8.2 °F 9.0 °F 80% 30.58 in 10.0 mi West 3.5 mph - N/A   Clear
3:53 AM 12.0 °F 5.9 °F 9.0 °F 88% 30.58 in 10.0 mi West 3.5 mph - N/A   Clear
4:53 AM 10.9 °F 4.7 °F 7.0 °F 84% 30.60 in 9.0 mi SSW 3.5 mph - N/A   Clear
5:53 AM 10.0 °F 3.6 °F 6.1 °F 84% 30.63 in 9.0 mi WSW 3.5 mph - N/A   Clear
6:53 AM 9.0 °F 2.4 °F 3.9 °F 80% 30.65 in 10.0 mi SSW 3.5 mph - N/A   Clear
7:53 AM 12.9 °F - 8.1 °F 81% 30.66 in 8.0 mi Calm Calm - N/A   Clear
8:53 AM 19.0 °F - 14.0 °F 81% 30.66 in 9.0 mi Calm Calm - N/A   Clear
9:53 AM 21.9 °F - 16.0 °F 78% 30.66 in 10.0 mi Calm Calm - N/A   Clear
10:53 AM 25.0 °F 19.3 °F 18.0 °F 75% 30.65 in 10.0 mi Variable 4.6 mph - N/A   Clear
11:53 AM 27.0 °F 20.5 °F 17.1 °F 66% 30.62 in 10.0 mi SW 5.8 mph - N/A   Clear
12:53 PM 28.0 °F 22.8 °F 16.0 °F 61% 30.60 in 10.0 mi South 4.6 mph - N/A   Clear
1:53 PM 28.9 °F 21.1 °F 15.1 °F 56% 30.58 in 10.0 mi SSW 8.1 mph - N/A   Clear
2:53 PM 30.0 °F 21.7 °F 15.1 °F 54% 30.56 in 10.0 mi SSE 9.2 mph - N/A   Clear
3:53 PM 28.0 °F 20.8 °F 15.1 °F 58% 30.55 in 10.0 mi SSE 6.9 mph - N/A   Clear
4:53 PM 27.0 °F 20.5 °F 15.1 °F 61% 30.53 in 10.0 mi SSE 5.8 mph - N/A   Clear
5:53 PM 25.0 °F 19.3 °F 15.1 °F 66% 30.52 in 10.0 mi SSE 4.6 mph - N/A   Clear
6:53 PM 25.0 °F 18.1 °F 15.1 °F 66% 30.51 in 10.0 mi SE 5.8 mph - N/A   Clear
7:53 PM 25.0 °F 18.1 °F 15.1 °F 66% 30.48 in 10.0 mi SSE 5.8 mph - N/A   Clear
8:53 PM 26.1 °F 18.4 °F 18.0 °F 71% 30.45 in 10.0 mi South 6.9 mph - N/A   Clear
9:53 PM 27.0 °F 17.3 °F 19.9 °F 75% 30.42 in 10.0 mi South 10.4 mph - N/A   Clear
10:53 PM 28.0 °F 18.6 °F 19.9 °F 72% 30.39 in 9.0 mi South 10.4 mph - N/A   Clear
11:53 PM 28.9 °F 21.1 °F 19.9 °F 69% 30.36 in 10.0 mi South 8.1 mph - N/A   Clear